sat.trackr.live / text

‹ back to catalog

STARLINK-30528

NORAD 57967 · 2023-151D

PAYLOAD ACTIVE UNKNOWN

§ Identity

Operator
Country
US
Launch date
2023-09-30
Launch site
AFETR
Launch vehicle
Mass (kg)
RCS (m²)

Purposes: comms

External: N2YO · Heavens-Above · Gunter

§ Orbital elements

Epoch: 2026-09-20T15:23:04.416576Z

Period
94.27 min
Inclination
43.0021°
Eccentricity
0.0000952
Mean motion
15.27580033 rev/d
Perigee alt
482.4 km
Apogee alt
483.7 km
Semi-major
6,861.2 km
B*
6.9621e-6
RAAN
314.8561°
Arg perigee
244.5294°
Mean anomaly
115.5459°
Rev number
16,558

§ Raw data

STARLINK-305281 57967U 23151D   26263.64102334 -.00000070  00000+0  69621-5 0  99942 57967  43.0021 314.8561 0000952 244.5294 115.5459 15.27580033165589

JSON: /api/v1/satellites/57967 · /tle

For live sub-satellite position, see the globe view (requires WebGL).

§ Visibility from observer

Set your observer location to see the next 7 days of passes ≥ 10°. The values pass through the URL so the page stays shareable.

No JS? Fill the form by hand. The geolocation button needs JavaScript.